Temp
9 9 9 9 9 9 9 9 9 9 9 9 9 9 9 9 9 9 9 9 8 8 8 8 8 9 9 9 9 8 7 8 9 9 8 8 8 7 8 8 8 8 8 8 8 8 8 8 8 8 8 8 8 8 8 9 9 9 9 8 8 8 8 8 8 8 8 8 8 8 8 8 8 8 8 8 8 8 8 8 7 7 7 7 7
9 9 9 9 9 9 9 9 9 9 9 9 9 9 9 9 9 8 8 9 9 9 8 8 8 9 9 9 9 8 7 7 8 9 8 8 8 7 8 8 8 8 8 8 8 8 8 8 8 8 8 8 8 8 8 8 8 9 9 9 8 8 8 8 8 8 8 8 8 8 8 8 8 8 8 8 8 8 8 8 8 8 7 7 7
9 9 9 9 9 9 9 9 9 9 9 9 9 9 9 8 9 9 9 9 9 9 9 9 8 9 9 9 9 8 7 6 7 9 8 7 8 8 8 8 8 8 8 8 8 8 8 8 8 8 8 8 8 8 8 8 8 8 8 8 8 8 8 8 8 8 8 8 8 8 8 8 8 8 8 8 8 8 8 8 8 8 8 8 7
9 9 10 10 9 9 9 9 9 9 9 9 9 9 9 8 9 9 9 9 9 9 9 9 9 9 9 9 9 8 7 6 6 8 9 8 8 8 8 8 8 8 8 8 8 8 8 8 8 8 8 8 8 8 8 8 8 7 7 8 8 8 8 8 8 8 8 8 8 8 8 8 8 8 8 8 8 8 8 8 8 8 8 8 7
10 10 10 10 9 9 10 9 9 9 9 9 9 9 9 9 9 9 9 9 9 9 9 9 9 9 9 9 8 8 8 6 6 8 9 8 8 8 8 8 8 8 8 8 8 8 8 8 8 8 8 8 8 8 8 8 8 8 8 8 8 8 8 8 8 8 8 8 8 8 8 8 8 8 8 8 8 8 8 8 8 8 8 8 7
10 10 10 9 9 9 9 9 9 9 9 9 9 9 9 9 9 9 9 9 9 9 9 9 9 9 9 9 8 8 7 7 7 8 9 8 8 8 8 8 8 8 8 8 8 8 8 8 8 8 8 8 8 8 8 8 8 8 8 8 8 8 8 8 8 8 8 8 8 8 8 8 8 8 8 8 8 8 8 8 8 8 8 8 8
10 10 10 9 9 9 9 9 9 9 9 9 9 9 9 9 9 9 9 9 9 9 9 9 10 9 9 9 8 8 7 7 8 8 8 8 8 8 9 9 8 8 8 8 8 8 8 8 8 8 8 8 8 8 8 8 8 8 8 8 8 8 8 8 8 8 8 8 8 8 8 8 8 8 8 8 8 8 8 8 8 8 8 8 8
10 10 10 10 9 9 9 9 9 9 9 9 9 9 9 9 9 9 9 9 9 9 9 10 10 9 9 9 9 9 8 8 9 8 8 8 8 8 9 9 8 8 8 8 8 8 8 8 8 8 8 8 8 8 8 8 8 8 8 8 8 8 8 8 8 8 8 8 8 8 7 7 7 8 8 8 8 8 7 7 7 7 7 7 7
10 10 10 10 10 10 9 9 9 9 10 9 9 9 9 9 9 9 10 9 9 9 10 10 10 10 10 10 10 9 8 9 9 8 8 8 8 8 8 8 8 9 9 8 8 8 8 8 8 8 8 8 8 8 8 8 8 8 8 8 8 8 8 8 8 8 8 8 8 8 8 7 7 7 7 7 7 7 7 7 7 7 7 7 7
10 10 10 10 10 9 9 9 9 10 10 9 9 9 9 9 9 9 10 10 9 10 10 10 10 10 10 10 10 9 10 10 8 8 8 8 8 8 8 8 8 8 9 8 8 8 8 8 8 8 8 8 8 8 8 8 8 8 8 8 8 8 8 8 8 8 8 8 8 8 8 8 7 7 7 7 7 7 7 7 7 7 7 7 7
10 10 10 10 10 9 9 9 9 10 10 9 9 9 9 9 9 9 10 10 9 10 10 10 10 10 10 10 10 10 10 9 8 8 8 8 8 8 8 9 8 9 9 8 8 8 8 8 8 8 8 8 8 8 8 8 8 8 8 8 8 8 8 8 8 8 8 8 8 8 8 7 7 7 7 7 7 7 7 7 7 7 7 7 7
10 10 10 10 10 10 10 10 10 10 10 9 9 9 10 10 10 10 10 10 9 10 10 10 10 10 10 10 10 9 9 9 9 8 8 8 8 8 8 9 9 9 9 8 9 9 8 8 8 8 8 8 8 8 8 8 8 8 8 8 8 8 8 8 8 8 8 8 8 8 7 7 7 7 7 7 7 7 7 7 7 7 7 7 7
10 10 10 10 10 10 10 10 10 10 10 10 9 9 10 10 10 10 10 10 10 10 10 10 10 10 10 10 10 9 9 9 8 8 8 9 9 8 8 9 9 9 9 9 9 9 9 8 8 8 8 8 8 8 8 8 8 8 8 8 8 8 8 8 8 8 8 8 8 8 7 7 7 7 7 7 7 7 7 7 7 7 7 7 7
10 10 10 10 10 10 10 10 10 10 10 10 10 10 10 10 10 10 10 10 10 10 10 10 9 9 9 9 9 9 9 9 9 9 8 9 9 8 9 9 9 8 9 9 9 9 9 9 9 9 9 8 8 8 8 8 8 8 8 8 8 8 8 8 8 8 8 8 8 8 8 7 7 7 7 7 7 7 7 7 7 7 7 7 7
10 10 10 10 10 10 10 10 10 10 10 10 10 10 10 10 10 10 10 10 10 10 10 10 9 9 9 9 9 9 9 9 9 9 9 9 9 8 9 9 9 9 9 9 9 9 9 9 9 9 9 9 9 9 8 8 8 8 8 8 8 8 8 8 8 8 8 8 8 8 8 8 8 8 8 8 8 7 7 7 7 7 7 7 7
10 10 10 10 10 10 10 10 10 10 10 10 10 10 10 10 10 10 10 10 10 10 10 10 9 9 9 9 9 9 9 9 9 9 9 9 9 9 8 8 8 9 9 9 9 9 9 9 9 9 9 9 9 9 9 9 9 8 8 9 9 9 9 9 9 8 8 8 8 8 8 8 8 8 8 8 8 7 7 7 7 7 7 7 7
11 11 10 11 10 10 10 10 10 10 10 10 10 10 10 10 10 10 10 10 10 10 10 10 9 9 9 9 9 9 9 9 9 9 9 9 9 9 8 8 8 9 9 9 9 9 9 9 9 9 9 9 9 9 9 9 9 9 9 9 9 9 9 9 9 9 9 9 8 8 8 8 8 8 8 7 7 7 7 7 7 7 7 7 7
11 11 11 11 11 10 10 11 10 10 10 10 10 10 10 10 10 10 10 10 11 10 10 10 10 10 9 9 9 9 9 9 9 9 9 9 9 9 9 9 8 8 8 9 9 9 9 9 9 9 9 9 9 9 9 9 9 9 9 9 9 9 9 9 9 9 9 8 8 8 8 8 8 7 7 7 7 7 7 7 7 6 6 6 6
10 11 11 11 11 10 10 11 11 10 10 10 10 10 10 10 10 10 10 10 11 10 10 10 10 10 10 10 10 9 9 9 9 9 9 9 9 9 9 9 8 8 8 9 9 8 9 9 8 9 9 9 9 9 9 8 8 8 8 8 8 9 9 9 9 9 9 8 8 8 8 7 7 7 7 7 7 7 6 6 6 6 6 6 6
11 11 11 11 11 11 11 10 11 11 10 10 10 10 10 10 10 10 10 10 11 11 10 11 10 10 10 10 10 10 10 9 9 9 9 9 9 9 9 8 8 8 8 8 9 8 8 8 8 8 8 8 8 8 8 8 8 8 8 8 8 9 9 9 9 9 9 8 8 8 8 7 7 7 7 7 7 6 6 6 6 6 6 6 6
11 11 11 11 11 11 11 10 10 10 10 10 10 10 10 10 10 10 10 11 11 11 11 11 11 11 11 10 10 10 10 10 9 9 9 9 9 9 8 8 8 8 8 8 8 8 8 8 8 8 8 8 8 8 8 8 8 8 8 8 8 8 9 9 9 9 8 8 8 8 7 7 7 7 6 6 6 6 6 6 6 6 6 5 5
11 11 11 11 11 11 11 11 10 10 10 10 10 10 10 11 10 10 11 11 11 11 11 11 11 11 11 11 11 10 10 10 10 10 9 9 9 9 9 8 8 8 8 7 7 8 9 8 8 9 8 8 8 8 8 8 8 8 8 8 8 8 8 8 8 8 8 8 8 7 7 7 7 6 6 6 6 6 6 6 6 5 5 5 5
11 11 11 11 11 11 11 11 11 11 10 10 10 10 11 11 10 11 11 11 11 11 11 11 11 11 11 11 11 11 11 10 10 10 10 10 9 9 9 9 9 9 8 7 7 8 9 9 8 9 9 8 8 7 7 7 8 7 7 7 7 7 8 8 8 8 8 8 7 7 7 7 7 7 6 6 6 6 6 6 6 5 5 5 5
11 11 11 11 11 11 11 11 11 11 11 10 10 10 11 11 11 11 11 11 11 11 11 11 11 11 11 11 11 11 11 10 10 10 10 10 9 9 9 9 9 9 8 8 8 8 8 9 8 9 9 8 8 8 7 7 7 7 7 7 7 7 7 7 7 7 7 7 7 7 7 7 7 6 6 6 6 6 6 6 5 5 5 5 5
12 12 11 11 11 11 11 11 11 11 11 10 10 10 10 11 11 11 11 11 11 11 11 11 11 11 11 11 11 11 10 10 10 10 10 10 9 9 9 9 9 9 9 9 9 8 8 9 9 8 8 9 8 8 8 8 7 7 7 7 7 7 7 7 7 7 7 7 7 7 7 6 6 6 6 6 6 6 5 5 5 5 5 5 5
12 12 12 11 11 11 11 11 11 11 11 11 10 10 10 11 11 11 11 11 11 11 11 11 11 11 11 11 11 11 11 10 10 10 10 10 9 9 9 9 9 9 9 9 9 9 9 9 9 8 8 8 8 8 7 7 7 7 7 7 7 7 7 7 7 7 7 7 7 6 6 6 6 6 6 5 5 5 5 5 5 5 5 5 5
12 12 12 12 12 11 11 11 11 11 11 11 11 10 11 11 11 11 11 11 11 11 11 11 11 11 11 11 11 11 11 11 10 10 10 10 10 9 9 9 9 9 9 9 9 8 8 8 9 8 8 7 8 8 7 7 7 7 7 7 7 7 7 7 7 6 6 6 6 6 6 6 6 6 5 5 5 5 5 5 5 5 5 5 5
12 12 12 12 12 12 11 11 11 11 11 11 11 11 10 11 11 11 11 11 11 11 11 11 11 11 11 11 11 11 11 11 11 10 10 10 10 10 9 9 9 9 9 9 8 8 8 8 9 8 8 7 7 8 8 8 7 7 7 7 7 7 7 6 6 6 6 6 6 6 6 6 6 5 5 5 5 5 5 5 5 5 5 5 5
12 12 12 12 12 12 12 12 12 12 12 11 11 11 11 11 11 11 11 11 11 11 11 11 11 11 11 11 11 11 11 11 11 10 10 10 10 10 10 9 9 9 9 9 9 8 8 8 8 9 8 7 7 8 8 8 7 7 7 7 7 7 6 6 6 6 6 6 6 6 6 6 5 5 5 5 5 5 5 5 5 5 5 5 5
12 12 12 12 12 12 12 12 12 12 12 12 11 11 11 11 11 11 11 11 11 11 11 11 11 11 11 11 11 11 11 11 11 11 10 10 10 10 10 10 9 9 9 9 9 8 8 8 8 9 8 7 8 8 8 7 7 7 7 7 7 7 6 6 6 6 6 6 6 6 6 6 5 5 5 5 5 5 5 5 5 5 5 5 5
13 12 12 12 12 12 12 12 12 12 12 12 12 11 11 11 11 11 11 11 11 12 12 12 12 12 11 11 11 11 11 11 11 11 11 10 10 10 10 10 10 9 9 9 9 8 8 8 8 9 8 8 8 8 8 7 7 7 7 7 7 7 7 7 6 6 6 6 6 6 6 6 5 5 5 5 5 5 5 5 5 5 5 5 5
13 13 13 13 13 12 12 12 12 12 12 12 12 12 12 11 11 11 11 11 11 12 12 12 12 12 12 12 11 11 11 11 11 11 11 11 11 11 10 10 10 10 9 9 9 9 8 8 8 8 8 8 8 8 8 8 7 7 7 7 7 7 7 6 6 6 6 6 6 6 6 6 6 5 5 5 5 5 5 5 5 5 5 5 5
13 13 13 13 13 13 13 12 12 12 12 12 12 12 12 12 12 12 11 11 11 12 12 12 12 12 12 12 12 11 11 11 11 11 11 11 11 11 11 10 10 10 10 9 9 9 9 8 8 8 9 9 8 8 8 8 7 7 7 7 7 7 7 7 6 6 6 6 6 6 6 6 6 5 5 5 5 5 5 5 5 5 5 5 5
13 13 13 13 13 13 13 13 13 13 13 13 12 13 13 13 12 12 12 12 12 12 12 12 12 12 12 12 12 12 12 12 11 11 12 11 11 11 11 11 10 10 10 10 10 9 9 9 9 8 8 9 8 8 8 8 8 8 7 7 7 7 7 7 7 7 6 6 6 6 6 6 6 6 5 5 6 6 6 5 5 5 6 6 6
13 13 13 13 13 13 13 13 13 13 13 13 13 13 13 13 13 13 12 12 12 12 12 12 12 12 12 12 12 12 12 12 12 12 12 12 12 11 11 11 11 11 10 10 10 10 10 9 9 8 8 9 9 8 8 8 8 8 7 7 7 7 7 7 7 7 7 7 6 6 6 6 6 6 6 6 6 6 6 6 6 6 6 6 6
13 13 13 13 13 13 13 13 13 13 13 13 13 13 13 13 13 13 13 13 13 12 12 12 12 12 12 12 12 12 12 12 12 12 12 12 12 11 11 11 11 11 11 10 10 10 10 10 10 9 9 9 9 8 8 8 8 8 8 7 7 7 7 7 7 7 7 7 7 6 6 6 6 6 6 6 5 5 6 6 6 6 6 7 7
14 13 13 13 13 13 13 13 13 13 13 13 13 13 13 13 13 13 13 13 13 13 13 12 12 12 12 12 12 12 12 12 12 12 12 12 12 12 11 11 11 11 11 11 10 10 10 10 10 10 9 9 9 9 8 8 7 8 8 7 7 7 7 7 7 7 7 7 7 6 6 6 6 6 6 6 6 6 6 6 6 6 7 7 7
14 14 14 14 14 14 14 14 14 14 14 14 13 13 13 13 13 13 13 13 13 13 13 13 13 13 13 12 12 12 12 12 12 12 12 12 12 12 11 11 11 11 11 11 11 10 10 10 10 10 9 9 9 9 8 8 8 7 7 7 7 7 7 7 7 7 7 7 7 6 6 6 6 6 6 6 6 6 7 7 7 7 7 7 7
14 14 14 14 14 14 14 14 14 14 14 14 14 14 14 13 13 13 13 13 13 13 13 13 13 13 13 13 12 12 13 12 12 12 12 12 12 12 12 11 11 11 11 11 11 11 10 10 10 9 9 9 9 9 9 8 8 7 7 7 7 7 7 7 7 7 7 7 7 7 6 6 6 6 6 6 7 7 7 7 7 7 7 7 7
14 14 14 14 14 14 14 14 14 14 14 14 14 14 14 14 14 13 13 13 13 13 13 13 13 13 13 13 13 13 13 13 13 13 12 12 12 12 12 12 11 11 11 11 11 11 11 10 10 9 9 9 9 9 8 8 8 8 7 8 8 7 7 7 7 7 6 6 7 7 6 6 6 6 6 6 7 7 7 7 7 7 7 7 7
15 14 14 14 14 14 14 14 14 14 14 14 14 14 14 14 14 14 13 13 13 13 13 13 14 14 14 14 13 13 13 13 13 13 13 12 12 12 12 12 12 12 12 11 11 11 11 11 10 10 9 9 9 9 8 8 8 8 8 8 8 7 7 7 7 7 7 6 6 6 6 6 6 6 6 6 6 7 7 7 7 7 7 7 7
15 15 14 14 14 15 14 14 14 14 14 15 15 14 14 14 14 14 14 14 13 13 13 13 14 14 14 14 14 14 14 14 13 13 13 13 13 12 12 12 12 12 12 12 11 11 11 11 11 10 10 10 9 9 9 8 8 8 8 8 8 7 7 7 7 7 7 7 6 6 6 6 6 6 6 6 6 7 7 7 7 7 7 7 7
15 15 14 14 14 15 15 15 15 15 15 15 15 15 15 14 14 14 14 14 14 14 14 14 14 14 14 14 14 14 14 14 14 14 13 13 13 12 12 12 12 12 12 12 12 11 11 11 11 11 10 10 9 9 9 9 8 8 8 8 8 7 7 7 7 7 7 7 6 6 6 6 6 6 6 6 7 7 7 7 7 7 7 7 6
15 15 15 15 15 15 15 15 16 16 16 16 16 15 15 15 15 14 14 14 14 14 14 14 14 14 14 14 14 14 14 14 14 14 14 13 13 12 12 12 12 12 12 12 12 12 12 11 11 11 11 10 10 9 9 9 9 8 8 8 7 7 7 7 7 7 7 7 7 6 6 6 6 6 6 6 7 8 8 7 7 6 6 6 6
15 15 15 15 15 15 15 16 16 16 16 16 16 16 16 15 15 15 15 15 15 15 15 15 15 15 14 14 14 14 14 14 14 14 14 14 13 13 12 12 12 12 12 12 12 12 12 12 11 11 11 11 10 10 9 9 9 9 8 8 7 7 7 7 7 7 7 7 7 7 6 6 6 6 6 7 7 8 8 7 7 6 6 6 6
15 15 15 16 16 15 15 16 16 16 16 16 16 16 16 16 15 15 15 15 15 15 15 15 15 15 15 15 15 15 14 14 14 14 14 14 14 13 13 12 12 12 12 12 12 12 12 12 12 11 11 11 10 10 9 9 9 9 8 8 7 7 7 7 7 7 7 7 7 7 7 6 6 6 6 7 7 7 7 7 7 6 6 6 6
16 16 16 16 16 16 16 16 16 17 17 17 17 17 16 16 16 15 15 15 15 15 15 15 15 16 15 15 15 15 15 15 15 14 14 14 14 14 13 13 13 12 12 12 12 12 12 12 12 11 11 11 10 10 9 9 9 9 8 7 7 7 7 7 7 7 7 7 7 7 7 7 6 6 6 7 7 7 7 7 7 6 6 6 6
16 16 16 16 16 17 17 16 16 17 17 17 17 17 17 16 16 16 15 15 15 15 15 15 15 15 15 15 15 15 15 15 15 15 14 14 14 14 14 14 13 13 13 12 12 12 12 12 12 12 11 11 11 10 10 10 10 9 8 8 8 8 8 7 8 7 7 7 7 7 7 7 7 7 7 7 7 7 7 7 7 6 6 6 6
16 16 16 16 16 16 17 17 17 17 17 17 17 17 17 16 16 16 16 15 15 15 15 15 15 15 15 15 15 15 16 15 15 15 15 14 14 14 14 14 13 13 13 13 12 12 12 12 12 12 11 11 11 11 10 10 10 9 8 8 8 8 8 8 8 7 7 7 7 7 7 7 7 7 7 7 7 7 7 7 7 6 6 6 6
16 16 17 17 17 17 17 17 17 17 17 16 16 16 17 17 16 16 16 15 15 15 15 15 15 15 15 15 15 15 15 15 15 15 15 15 15 14 15 14 14 13 13 13 13 13 12 12 12 12 11 11 11 11 10 10 10 10 9 9 8 8 8 8 8 7 7 7 7 7 7 7 7 7 7 7 7 7 7 7 6 6 6 6 6
16 16 17 17 17 17 17 17 17 17 17 16 16 16 17 16 16 16 16 16 16 16 16 15 15 15 15 15 15 15 15 15 15 15 15 15 15 15 15 14 14 14 14 13 13 13 13 12 12 12 11 11 11 11 10 10 10 10 10 9 8 8 8 8 8 8 7 7 6 6 7 6 6 7 7 7 7 7 7 6 6 6 6 6 6
Height
3223 3223 3224 3225 3225 3225 3225 3226 3227 3227 3227 3227 3227 3228 3228 3228 3227 3225 3225 3226 3226 3226 3226 3226 3225 3225 3225 3225 3225 3225 3225 3223 3223 3224 3224 3224 3225 3225 3225 3225 3225 3225 3225 3226 3227 3228 3228 3228 3229 3229 3229 3229 3229 3230 3230 3230 3230 3230 3230 3230 3230 3231 3231 3231 3232 3232 3232 3232 3233 3233 3233 3233 3233 3233 3233 3233 3233 3233 3233 3233 3233 3233 3233 3233 3232
3224 3224 3224 3225 3226 3226 3226 3227 3227 3227 3227 3227 3228 3228 3228 3228 3226 3225 3226 3226 3226 3226 3226 3226 3225 3225 3225 3225 3225 3225 3226 3224 3223 3224 3224 3224 3225 3225 3224 3225 3225 3225 3225 3226 3227 3228 3228 3228 3229 3229 3229 3229 3230 3230 3230 3230 3230 3230 3230 3230 3231 3231 3231 3231 3231 3231 3232 3232 3233 3233 3233 3233 3233 3233 3233 3233 3233 3233 3233 3233 3233 3233 3233 3233 3232
3224 3224 3225 3226 3226 3226 3227 3227 3228 3227 3227 3228 3229 3229 3228 3227 3226 3226 3227 3227 3227 3227 3226 3226 3225 3225 3225 3225 3225 3225 3226 3225 3222 3222 3224 3224 3225 3225 3225 3225 3225 3225 3225 3226 3227 3228 3229 3229 3229 3229 3229 3230 3230 3230 3230 3230 3230 3230 3230 3231 3231 3231 3231 3231 3231 3231 3232 3232 3232 3232 3232 3233 3233 3233 3233 3233 3233 3233 3233 3233 3233 3233 3233 3232 3232
3224 3225 3226 3226 3226 3227 3227 3228 3228 3227 3227 3228 3228 3228 3227 3226 3227 3227 3227 3227 3227 3227 3227 3226 3226 3225 3225 3225 3225 3225 3226 3226 3223 3222 3224 3225 3225 3225 3225 3225 3225 3225 3225 3226 3227 3228 3229 3229 3229 3229 3229 3230 3230 3230 3230 3230 3230 3230 3230 3230 3231 3231 3231 3231 3231 3232 3232 3232 3232 3232 3232 3232 3232 3232 3232 3232 3232 3232 3233 3233 3233 3232 3232 3232 3232
3224 3225 3225 3226 3226 3227 3227 3228 3227 3228 3227 3228 3228 3228 3228 3228 3228 3228 3228 3228 3228 3228 3227 3227 3226 3225 3225 3225 3225 3226 3226 3227 3225 3223 3224 3225 3225 3225 3225 3225 3225 3225 3226 3226 3227 3228 3228 3229 3229 3229 3229 3229 3230 3230 3230 3230 3230 3230 3230 3230 3230 3231 3231 3231 3231 3231 3232 3232 3232 3232 3232 3232 3232 3232 3232 3232 3232 3232 3232 3232 3232 3232 3232 3232 3231
3224 3225 3225 3226 3226 3226 3227 3227 3227 3228 3228 3229 3228 3228 3229 3229 3229 3229 3228 3228 3228 3228 3228 3227 3226 3226 3225 3225 3225 3225 3226 3227 3225 3223 3223 3225 3225 3225 3225 3225 3225 3225 3226 3226 3227 3228 3228 3228 3229 3229 3229 3229 3229 3230 3230 3230 3230 3230 3230 3230 3230 3230 3230 3231 3231 3231 3231 3231 3231 3232 3232 3232 3232 3231 3231 3231 3231 3232 3231 3231 3231 3231 3231 3231 3231
3224 3225 3225 3226 3226 3226 3227 3227 3227 3228 3228 3229 3229 3229 3229 3229 3229 3229 3229 3228 3228 3229 3228 3228 3227 3226 3225 3225 3225 3225 3225 3225 3225 3224 3224 3225 3225 3225 3225 3225 3225 3225 3226 3226 3227 3227 3228 3228 3228 3229 3229 3229 3229 3229 3229 3229 3230 3230 3230 3230 3230 3230 3230 3230 3230 3230 3230 3230 3231 3231 3231 3231 3231 3231 3231 3231 3231 3231 3231 3231 3231 3231 3231 3231 3230
3224 3225 3225 3226 3226 3227 3227 3227 3227 3228 3228 3228 3229 3229 3229 3229 3229 3229 3229 3229 3229 3229 3229 3228 3227 3226 3225 3225 3224 3224 3224 3224 3224 3224 3225 3225 3225 3225 3225 3225 3225 3225 3226 3226 3226 3227 3227 3227 3228 3228 3228 3228 3229 3229 3229 3229 3229 3229 3229 3229 3229 3229 3229 3229 3229 3230 3230 3230 3230 3230 3230 3230 3230 3230 3230 3230 3230 3230 3230 3230 3230 3230 3230 3230 3230
3224 3225 3225 3226 3226 3227 3227 3227 3227 3228 3228 3228 3229 3229 3229 3229 3229 3229 3229 3229 3229 3229 3228 3228 3227 3226 3225 3225 3224 3224 3223 3223 3224 3225 3225 3225 3226 3225 3225 3225 3225 3225 3226 3226 3226 3227 3227 3227 3227 3228 3228 3228 3228 3228 3229 3229 3229 3229 3229 3229 3229 3229 3229 3229 3229 3229 3229 3229 3229 3229 3229 3229 3229 3229 3230 3230 3230 3229 3229 3229 3229 3229 3229 3229 3229
3224 3225 3225 3225 3226 3226 3226 3227 3227 3227 3228 3228 3229 3229 3229 3229 3229 3229 3229 3229 3229 3229 3228 3228 3227 3226 3226 3225 3224 3224 3223 3224 3225 3225 3225 3226 3226 3226 3225 3225 3226 3226 3226 3226 3226 3227 3227 3227 3227 3228 3227 3227 3227 3228 3228 3228 3228 3228 3228 3228 3228 3228 3228 3228 3228 3228 3228 3228 3229 3229 3229 3229 3229 3229 3229 3229 3229 3229 3228 3228 3228 3228 3228 3228 3227
3224 3225 3225 3225 3225 3226 3226 3226 3227 3227 3228 3228 3229 3229 3229 3229 3229 3229 3229 3229 3229 3229 3228 3228 3227 3227 3226 3225 3225 3224 3224 3224 3225 3225 3226 3226 3226 3226 3226 3226 3226 3226 3226 3226 3226 3226 3226 3227 3227 3227 3227 3227 3227 3227 3227 3228 3228 3228 3228 3228 3228 3228 3228 3228 3228 3228 3228 3228 3228 3228 3228 3228 3228 3228 3228 3228 3228 3228 3228 3227 3227 3227 3227 3226 3226
3224 3224 3225 3225 3225 3226 3226 3226 3227 3227 3228 3228 3229 3229 3229 3229 3229 3229 3229 3229 3229 3229 3228 3228 3228 3227 3226 3225 3225 3224 3224 3225 3225 3225 3226 3226 3226 3227 3227 3227 3227 3227 3227 3226 3226 3226 3227 3227 3227 3227 3227 3227 3227 3227 3227 3227 3227 3227 3227 3227 3227 3227 3227 3227 3228 3228 3228 3228 3228 3227 3227 3227 3227 3227 3227 3227 3227 3227 3227 3226 3226 3226 3226 3225 3225
3223 3224 3224 3224 3225 3225 3226 3226 3226 3227 3227 3228 3229 3229 3229 3229 3228 3228 3229 3229 3229 3229 3228 3228 3227 3226 3226 3226 3225 3225 3225 3225 3225 3225 3226 3226 3227 3227 3226 3227 3227 3227 3227 3226 3226 3226 3227 3227 3227 3227 3227 3227 3227 3226 3226 3226 3226 3226 3226 3226 3227 3227 3227 3227 3227 3227 3227 3227 3227 3226 3226 3226 3226 3226 3226 3226 3226 3225 3225 3225 3225 3224 3224 3223 3223
3222 3223 3224 3224 3224 3225 3225 3225 3226 3226 3227 3228 3229 3229 3228 3228 3228 3229 3229 3229 3229 3228 3228 3227 3227 3226 3226 3226 3225 3225 3225 3225 3225 3226 3226 3226 3227 3227 3226 3227 3228 3228 3227 3227 3227 3226 3227 3226 3226 3227 3227 3227 3226 3226 3226 3226 3225 3226 3226 3226 3226 3226 3226 3226 3226 3226 3226 3226 3226 3225 3225 3225 3225 3225 3225 3224 3224 3224 3223 3223 3223 3223 3222 3222 3222
3222 3223 3223 3223 3224 3225 3225 3225 3226 3226 3226 3227 3228 3228 3228 3228 3228 3228 3229 3229 3229 3228 3227 3227 3226 3226 3226 3226 3225 3225 3225 3225 3225 3226 3226 3226 3227 3227 3227 3226 3227 3228 3228 3227 3227 3227 3227 3227 3226 3226 3226 3226 3226 3226 3226 3226 3225 3225 3225 3225 3225 3225 3225 3225 3224 3224 3224 3224 3224 3224 3224 3224 3224 3223 3223 3223 3222 3222 3222 3222 3221 3221 3221 3220 3220
3220 3222 3222 3223 3223 3224 3224 3225 3226 3226 3226 3226 3227 3227 3228 3228 3228 3228 3228 3229 3228 3228 3227 3227 3226 3226 3226 3226 3225 3225 3225 3225 3226 3226 3226 3226 3227 3227 3227 3227 3227 3228 3228 3227 3227 3227 3227 3227 3227 3226 3226 3226 3226 3226 3226 3226 3226 3226 3225 3225 3224 3224 3223 3223 3223 3223 3223 3222 3222 3222 3222 3222 3222 3222 3221 3221 3221 3221 3220 3220 3220 3220 3219 3219 3219
3219 3220 3221 3222 3223 3223 3224 3225 3225 3225 3225 3226 3227 3227 3227 3227 3228 3228 3228 3228 3228 3228 3227 3227 3226 3226 3225 3225 3225 3225 3225 3226 3226 3226 3226 3226 3226 3227 3227 3228 3228 3227 3228 3227 3227 3227 3227 3227 3227 3227 3227 3227 3227 3227 3227 3226 3226 3226 3225 3224 3224 3223 3223 3222 3222 3222 3221 3221 3221 3221 3221 3221 3220 3220 3220 3220 3220 3220 3219 3219 3219 3219 3218 3218 3217
3217 3219 3220 3221 3222 3222 3223 3224 3224 3225 3225 3226 3226 3226 3227 3227 3227 3228 3228 3228 3228 3228 3227 3227 3226 3226 3226 3226 3225 3225 3226 3226 3226 3226 3226 3226 3227 3227 3227 3227 3227 3227 3227 3227 3227 3227 3227 3227 3227 3227 3227 3227 3227 3227 3226 3226 3226 3225 3225 3224 3223 3222 3222 3221 3221 3221 3220 3220 3220 3220 3220 3220 3219 3219 3219 3219 3219 3219 3218 3218 3218 3217 3217 3216 3216
3216 3217 3219 3220 3221 3221 3222 3223 3223 3224 3225 3225 3225 3225 3226 3226 3226 3227 3228 3228 3228 3228 3227 3227 3226 3226 3226 3226 3226 3226 3226 3226 3226 3226 3226 3226 3226 3227 3227 3227 3227 3227 3227 3227 3227 3227 3227 3227 3227 3227 3227 3227 3226 3226 3226 3226 3225 3225 3224 3223 3223 3222 3221 3221 3220 3220 3220 3220 3219 3219 3219 3219 3219 3218 3218 3218 3218 3218 3217 3217 3217 3216 3216 3215 3215
3215 3216 3217 3218 3220 3220 3221 3221 3222 3223 3224 3224 3224 3225 3225 3226 3226 3227 3227 3228 3228 3228 3228 3227 3227 3226 3226 3226 3226 3226 3226 3226 3226 3226 3226 3227 3226 3226 3226 3226 3226 3227 3226 3225 3226 3226 3226 3226 3227 3227 3227 3226 3226 3226 3226 3225 3225 3224 3224 3223 3222 3222 3221 3221 3220 3220 3220 3219 3219 3219 3219 3218 3218 3218 3218 3218 3217 3217 3217 3216 3216 3216 3215 3215 3214
3214 3215 3216 3217 3218 3219 3220 3220 3221 3222 3223 3224 3224 3224 3225 3225 3226 3226 3227 3227 3228 3228 3228 3227 3227 3227 3227 3226 3226 3226 3226 3226 3226 3226 3226 3226 3226 3226 3226 3226 3226 3226 3226 3225 3225 3225 3226 3226 3226 3226 3226 3226 3226 3226 3225 3225 3225 3224 3224 3223 3222 3221 3221 3221 3220 3220 3220 3219 3219 3219 3219 3218 3218 3218 3218 3218 3217 3217 3217 3216 3216 3215 3215 3214 3214
3212 3214 3215 3216 3217 3218 3219 3219 3220 3221 3222 3223 3223 3224 3224 3224 3225 3226 3226 3227 3227 3228 3228 3228 3228 3227 3227 3227 3226 3226 3226 3226 3226 3226 3226 3226 3226 3226 3226 3226 3225 3226 3226 3226 3225 3224 3225 3226 3225 3225 3226 3226 3225 3225 3225 3225 3225 3224 3224 3223 3222 3221 3221 3221 3220 3220 3220 3220 3220 3219 3219 3219 3219 3218 3218 3218 3217 3217 3217 3216 3216 3215 3215 3214 3214
3211 3212 3213 3214 3215 3217 3218 3218 3219 3220 3221 3222 3223 3223 3223 3224 3224 3225 3225 3226 3227 3227 3227 3228 3228 3227 3227 3227 3227 3226 3226 3226 3226 3226 3226 3226 3226 3226 3226 3225 3225 3226 3226 3226 3226 3224 3224 3225 3225 3224 3225 3225 3225 3225 3224 3224 3224 3224 3224 3223 3222 3222 3221 3221 3221 3220 3220 3220 3220 3220 3219 3219 3219 3218 3218 3218 3217 3217 3216 3216 3215 3215 3214 3214 3213
3209 3210 3212 3213 3214 3215 3216 3217 3218 3219 3220 3221 3221 3222 3222 3223 3224 3224 3224 3225 3226 3227 3227 3227 3227 3227 3227 3227 3227 3227 3226 3227 3227 3226 3227 3226 3226 3226 3226 3225 3225 3225 3226 3226 3226 3225 3224 3224 3224 3224 3223 3224 3224 3224 3224 3224 3223 3223 3223 3223 3222 3222 3221 3221 3221 3220 3220 3220 3220 3220 3219 3219 3218 3218 3217 3217 3217 3216 3216 3215 3215 3214 3213 3212 3211
3208 3209 3210 3211 3212 3213 3215 3216 3216 3217 3218 3219 3220 3221 3221 3222 3223 3223 3224 3224 3225 3226 3226 3227 3227 3227 3227 3227 3227 3227 3227 3227 3227 3227 3227 3226 3226 3226 3226 3226 3225 3225 3226 3226 3226 3226 3225 3224 3224 3224 3223 3223 3223 3223 3223 3223 3223 3222 3222 3222 3222 3221 3221 3221 3221 3220 3220 3220 3220 3220 3219 3219 3218 3218 3217 3217 3216 3216 3215 3214 3213 3213 3212 3211 3210
3206 3208 3209 3209 3210 3212 3213 3214 3215 3216 3217 3218 3219 3220 3220 3221 3222 3222 3223 3224 3224 3225 3226 3226 3226 3227 3227 3227 3227 3227 3227 3227 3227 3227 3227 3226 3226 3226 3226 3226 3226 3225 3226 3226 3225 3225 3224 3223 3223 3223 3223 3222 3222 3222 3222 3222 3222 3222 3221 3221 3221 3221 3221 3221 3220 3220 3220 3220 3220 3219 3219 3218 3218 3217 3216 3216 3215 3214 3213 3212 3211 3210 3209 3208 3207
3205 3206 3207 3208 3209 3210 3212 3213 3214 3215 3215 3216 3217 3218 3219 3219 3220 3221 3222 3223 3223 3224 3225 3225 3226 3226 3226 3227 3227 3227 3227 3227 3227 3227 3227 3227 3227 3227 3227 3226 3226 3226 3225 3225 3224 3224 3223 3223 3223 3222 3222 3221 3221 3221 3222 3222 3221 3221 3220 3220 3220 3220 3220 3220 3220 3219 3219 3219 3218 3218 3217 3217 3216 3216 3215 3214 3213 3212 3211 3210 3209 3208 3207 3206 3204
3204 3204 3205 3206 3208 3209 3210 3211 3212 3213 3214 3215 3215 3216 3218 3218 3219 3220 3221 3221 3222 3223 3224 3224 3225 3225 3226 3226 3226 3226 3227 3227 3227 3227 3227 3227 3227 3227 3227 3226 3226 3225 3225 3224 3224 3224 3223 3223 3222 3222 3221 3221 3220 3221 3220 3220 3220 3220 3220 3219 3219 3219 3219 3219 3219 3218 3218 3217 3217 3216 3216 3216 3215 3214 3214 3213 3212 3211 3210 3209 3207 3206 3205 3204 3202
3202 3203 3204 3205 3206 3207 3209 3210 3211 3211 3212 3213 3214 3215 3216 3217 3218 3219 3219 3220 3221 3222 3223 3223 3224 3224 3225 3225 3226 3226 3226 3227 3227 3227 3227 3227 3226 3226 3226 3226 3226 3225 3225 3224 3224 3224 3223 3222 3221 3221 3221 3221 3220 3220 3220 3219 3219 3219 3219 3218 3218 3218 3218 3218 3217 3217 3216 3216 3215 3215 3215 3214 3214 3213 3212 3211 3210 3209 3208 3207 3205 3204 3203 3202 3201
3201 3202 3203 3204 3204 3206 3207 3208 3209 3210 3211 3212 3213 3213 3214 3215 3216 3217 3218 3218 3220 3221 3222 3222 3223 3223 3224 3225 3225 3225 3225 3226 3226 3226 3226 3226 3226 3226 3226 3226 3225 3225 3224 3224 3223 3223 3222 3221 3220 3220 3220 3220 3220 3220 3219 3219 3218 3217 3217 3217 3217 3217 3216 3216 3216 3216 3215 3214 3214 3214 3213 3213 3213 3212 3210 3209 3208 3207 3206 3205 3203 3202 3201 3200 3199
3199 3200 3201 3203 3204 3204 3206 3207 3208 3209 3209 3210 3211 3212 3212 3213 3214 3215 3216 3217 3218 3219 3220 3221 3222 3222 3223 3223 3224 3224 3225 3225 3225 3226 3226 3225 3225 3225 3225 3225 3224 3224 3223 3223 3222 3222 3222 3221 3219 3219 3219 3219 3219 3218 3218 3218 3217 3216 3216 3215 3215 3215 3215 3215 3215 3214 3214 3213 3212 3212 3212 3212 3211 3210 3209 3207 3206 3205 3204 3202 3201 3199 3198 3197 3196
3197 3199 3200 3201 3202 3204 3205 3206 3207 3208 3208 3209 3210 3210 3211 3211 3212 3213 3214 3215 3216 3217 3219 3220 3220 3221 3222 3222 3223 3223 3224 3224 3224 3225 3225 3225 3224 3224 3224 3224 3224 3223 3223 3222 3222 3222 3222 3221 3219 3218 3218 3218 3218 3217 3217 3216 3216 3215 3214 3214 3214 3213 3213 3213 3213 3213 3212 3211 3211 3210 3210 3210 3209 3208 3207 3205 3204 3203 3201 3200 3198 3197 3195 3194 3193
3196 3197 3198 3199 3201 3202 3203 3204 3205 3206 3207 3208 3208 3209 3210 3210 3211 3211 3212 3213 3214 3215 3217 3218 3219 3219 3220 3221 3222 3222 3222 3223 3223 3223 3223 3224 3224 3223 3223 3223 3223 3223 3222 3222 3221 3221 3221 3220 3219 3217 3217 3217 3217 3216 3215 3215 3215 3214 3212 3212 3212 3212 3211 3211 3211 3211 3210 3210 3209 3208 3208 3207 3206 3205 3204 3203 3201 3200 3198 3197 3195 3194 3193 3191 3190
3194 3195 3197 3198 3199 3200 3202 3203 3204 3205 3206 3207 3207 3208 3208 3209 3209 3210 3210 3211 3212 3213 3214 3216 3217 3218 3218 3219 3220 3220 3221 3221 3222 3222 3222 3222 3222 3222 3222 3222 3222 3222 3221 3221 3220 3220 3220 3219 3219 3217 3215 3215 3216 3215 3214 3213 3213 3213 3211 3210 3210 3210 3209 3209 3209 3209 3208 3207 3206 3205 3205 3205 3204 3203 3202 3200 3199 3197 3196 3194 3193 3192 3190 3189 3187
3192 3193 3195 3196 3197 3198 3199 3201 3202 3203 3204 3205 3206 3206 3207 3208 3208 3208 3208 3209 3210 3211 3212 3213 3215 3216 3216 3217 3218 3219 3219 3219 3220 3220 3221 3221 3221 3221 3221 3221 3221 3221 3220 3220 3220 3219 3219 3218 3218 3217 3215 3214 3214 3214 3213 3212 3211 3211 3211 3209 3208 3208 3208 3207 3206 3206 3206 3205 3204 3203 3202 3202 3202 3201 3199 3198 3196 3195 3193 3192 3191 3189 3187 3186 3184
3190 3191 3193 3194 3195 3196 3197 3198 3200 3201 3202 3203 3204 3204 3205 3206 3207 3207 3207 3207 3207 3208 3210 3211 3212 3213 3214 3214 3216 3216 3217 3217 3218 3218 3219 3219 3219 3219 3219 3219 3219 3219 3219 3219 3219 3218 3217 3217 3216 3216 3215 3213 3212 3212 3212 3211 3210 3209 3209 3208 3207 3206 3206 3205 3204 3203 3203 3203 3202 3201 3200 3200 3199 3198 3197 3195 3194 3193 3191 3190 3188 3186 3185 3183 3182
3187 3189 3190 3192 3193 3194 3195 3196 3198 3199 3200 3201 3201 3202 3203 3204 3205 3205 3205 3205 3205 3206 3207 3208 3209 3210 3211 3212 3213 3214 3214 3215 3215 3216 3217 3217 3217 3217 3217 3217 3217 3217 3217 3217 3217 3217 3216 3215 3215 3214 3213 3212 3212 3211 3210 3210 3209 3207 3207 3206 3205 3205 3204 3203 3201 3200 3201 3201 3200 3199 3198 3197 3197 3196 3195 3193 3192 3191 3189 3187 3185 3184 3182 3180 3179
3185 3186 3188 3189 3190 3191 3193 3195 3195 3196 3198 3198 3199 3200 3201 3202 3202 3203 3204 3204 3204 3204 3205 3206 3206 3207 3208 3209 3210 3211 3211 3212 3213 3214 3215 3215 3215 3215 3215 3215 3215 3215 3215 3214 3214 3214 3214 3213 3213 3212 3212 3211 3210 3209 3208 3207 3206 3205 3204 3204 3203 3203 3202 3201 3200 3198 3198 3198 3198 3196 3196 3195 3195 3194 3193 3191 3190 3188 3186 3184 3183 3181 3179 3178 3177
3183 3184 3185 3187 3188 3189 3191 3192 3193 3194 3195 3195 3196 3197 3198 3199 3200 3200 3201 3202 3202 3202 3202 3203 3204 3204 3205 3206 3207 3208 3208 3209 3210 3211 3212 3212 3213 3212 3212 3212 3212 3212 3212 3212 3211 3211 3211 3211 3210 3209 3209 3209 3208 3207 3206 3205 3204 3203 3202 3201 3201 3201 3200 3199 3198 3196 3195 3195 3195 3194 3193 3193 3193 3192 3191 3189 3187 3185 3183 3182 3180 3179 3177 3176 3175
3180 3181 3182 3184 3186 3187 3188 3189 3191 3191 3192 3192 3193 3193 3195 3196 3197 3197 3198 3199 3200 3200 3200 3200 3201 3201 3202 3203 3203 3204 3205 3206 3207 3207 3208 3209 3210 3210 3209 3209 3209 3209 3209 3209 3208 3208 3208 3208 3207 3207 3206 3206 3206 3205 3204 3203 3202 3201 3200 3199 3199 3198 3198 3197 3197 3195 3193 3193 3192 3192 3190 3189 3189 3188 3187 3186 3184 3182 3181 3179 3178 3176 3174 3174 3172
3178 3179 3180 3181 3183 3184 3185 3186 3187 3188 3188 3189 3189 3190 3191 3193 3194 3194 3195 3196 3197 3197 3197 3197 3198 3198 3199 3199 3200 3201 3201 3202 3203 3204 3204 3205 3206 3207 3207 3207 3206 3206 3206 3206 3206 3205 3205 3205 3205 3205 3204 3203 3203 3203 3202 3200 3200 3199 3198 3196 3196 3195 3195 3194 3194 3193 3192 3191 3190 3189 3188 3186 3185 3183 3182 3181 3180 3179 3178 3177 3176 3173 3171 3170 3169
3175 3177 3178 3179 3179 3181 3182 3183 3184 3185 3185 3186 3186 3188 3189 3190 3191 3192 3192 3192 3193 3194 3194 3194 3194 3194 3195 3195 3196 3197 3198 3199 3199 3200 3201 3201 3202 3203 3204 3204 3203 3203 3203 3202 3202 3202 3202 3202 3202 3201 3201 3200 3200 3200 3199 3198 3197 3196 3195 3194 3194 3193 3192 3191 3191 3191 3190 3189 3188 3188 3187 3185 3184 3182 3180 3179 3178 3176 3175 3175 3173 3170 3168 3167 3166
3171 3173 3175 3177 3177 3177 3179 3181 3181 3182 3182 3183 3184 3185 3186 3187 3188 3189 3189 3189 3189 3189 3190 3190 3190 3191 3191 3191 3192 3192 3193 3194 3194 3195 3196 3197 3198 3199 3200 3200 3200 3200 3199 3199 3199 3198 3198 3198 3198 3198 3197 3197 3197 3196 3196 3195 3194 3193 3192 3191 3191 3190 3189 3188 3188 3188 3188 3186 3186 3186 3185 3184 3182 3181 3180 3178 3176 3174 3173 3172 3170 3167 3165 3164 3163
3169 3170 3172 3174 3175 3175 3176 3177 3178 3179 3180 3181 3182 3182 3183 3184 3185 3185 3186 3186 3185 3185 3185 3186 3186 3187 3187 3187 3188 3188 3189 3190 3190 3191 3192 3193 3194 3195 3196 3196 3197 3197 3196 3196 3195 3195 3195 3195 3195 3194 3194 3194 3193 3193 3193 3192 3191 3190 3189 3188 3188 3187 3186 3185 3185 3185 3186 3185 3183 3183 3183 3181 3180 3179 3178 3176 3174 3173 3171 3169 3167 3165 3163 3162 3161
3166 3167 3169 3170 3172 3173 3173 3174 3175 3176 3177 3178 3179 3180 3180 3181 3182 3183 3182 3182 3182 3182 3181 3182 3182 3183 3183 3183 3184 3184 3185 3186 3186 3186 3187 3188 3189 3190 3191 3192 3192 3192 3192 3191 3192 3192 3191 3191 3191 3191 3191 3191 3190 3189 3189 3188 3187 3187 3187 3186 3185 3184 3183 3183 3182 3182 3182 3182 3181 3180 3180 3178 3177 3176 3174 3173 3171 3169 3168 3167 3165 3163 3162 3160 3160
3164 3165 3166 3167 3169 3170 3171 3171 3172 3173 3174 3175 3176 3176 3177 3178 3179 3179 3180 3179 3179 3178 3178 3178 3178 3179 3179 3179 3180 3180 3181 3182 3182 3182 3182 3183 3185 3185 3186 3187 3187 3188 3187 3187 3187 3188 3187 3187 3187 3187 3188 3187 3186 3186 3185 3184 3183 3183 3183 3182 3182 3181 3180 3180 3179 3178 3178 3179 3178 3177 3177 3176 3174 3173 3172 3170 3168 3166 3166 3165 3163 3162 3160 3159 3158
3160 3162 3163 3164 3165 3166 3168 3169 3169 3169 3170 3171 3172 3173 3174 3174 3175 3176 3176 3176 3175 3175 3175 3175 3175 3175 3176 3175 3175 3176 3176 3177 3177 3177 3177 3178 3180 3180 3180 3181 3181 3181 3181 3181 3182 3183 3183 3183 3183 3183 3183 3183 3183 3182 3181 3180 3180 3179 3179 3179 3178 3178 3177 3177 3176 3175 3175 3175 3174 3174 3174 3173 3172 3170 3169 3168 3166 3164 3163 3162 3161 3160 3158 3157 3156
3157 3159 3160 3161 3162 3163 3164 3165 3166 3166 3167 3168 3168 3169 3170 3170 3171 3172 3172 3172 3172 3172 3171 3171 3171 3171 3172 3172 3172 3172 3172 3172 3173 3173 3173 3173 3174 3174 3174 3175 3175 3175 3175 3176 3177 3178 3178 3178 3178 3179 3179 3178 3178 3178 3177 3176 3177 3176 3175 3174 3174 3174 3173 3173 3172 3171 3171 3171 3171 3171 3171 3171 3170 3168 3166 3165 3163 3162 3161 3160 3159 3158 3157 3156 3154
3154 3155 3156 3157 3158 3159 3160 3161 3162 3163 3164 3165 3165 3165 3166 3166 3166 3167 3167 3168 3168 3168 3168 3167 3167 3167 3167 3168 3168 3168 3168 3167 3168 3169 3168 3168 3168 3169 3169 3169 3169 3169 3169 3170 3172 3172 3172 3173 3174 3174 3173 3173 3173 3173 3173 3172 3172 3173 3172 3170 3170 3169 3168 3168 3168 3167 3167 3167 3168 3169 3169 3168 3167 3166 3164 3162 3161 3160 3159 3157 3157 3156 3155 3153 3152
3151 3152 3153 3154 3155 3156 3157 3157 3158 3159 3160 3161 3162 3162 3162 3162 3162 3162 3163 3163 3164 3164 3164 3164 3164 3164 3163 3164 3164 3163 3163 3163 3163 3164 3164 3163 3163 3163 3163 3163 3163 3164 3164 3165 3166 3167 3167 3167 3168 3169 3168 3168 3168 3169 3169 3168 3168 3168 3168 3167 3166 3165 3164 3164 3164 3163 3163 3163 3164 3165 3166 3165 3164 3162 3161 3159 3158 3157 3156 3155 3154 3153 3152 3150 3149
3147 3148 3149 3150 3151 3152 3153 3154 3155 3156 3156 3157 3158 3158 3158 3158 3158 3158 3158 3158 3158 3159 3159 3159 3159 3160 3160 3160 3159 3159 3159 3158 3158 3159 3159 3158 3157 3158 3159 3158 3157 3158 3159 3160 3161 3162 3162 3161 3162 3163 3164 3164 3163 3163 3164 3163 3163 3163 3163 3163 3162 3161 3160 3161 3160 3159 3158 3160 3160 3160 3161 3161 3160 3159 3158 3157 3156 3155 3154 3153 3152 3151 3149 3147 3146
Wind_Speed
6 5 5 6 4 4 4 3 3 4 4 3 3 4 4 2 3 6 7 6 6 6 5 4 4 5 6 6 5 5 7 9 7 3 1 4 4 5 5 2 1 2 2 2 1 1 1 2 2 3 3 4 5 6 6 5 5 5 4 4 3 2 1 1 1 2 3 3 3 3 3 2 2 2 3 3 4 4 4 4 4 3 4 4 5
6 5 4 5 4 3 4 2 2 4 3 2 3 3 3 2 4 8 6 5 5 5 5 5 4 5 7 7 7 5 8 10 9 3 3 4 4 4 5 4 1 2 3 2 2 0 0 1 2 3 3 4 4 4 5 5 4 5 4 4 3 3 2 2 1 1 2 2 3 3 3 3 3 4 4 4 4 4 4 4 4 4 4 5 5
5 5 4 4 4 3 4 2 2 4 3 2 2 2 4 5 7 7 5 4 5 5 5 5 4 6 6 7 8 6 9 8 8 4 3 3 2 3 5 5 3 2 3 2 1 1 1 2 2 3 3 3 3 3 4 4 4 4 4 4 3 3 2 2 2 1 1 1 1 2 2 3 3 4 4 4 4 4 5 5 5 5 5 6 6
5 6 5 5 4 3 4 3 3 4 2 2 2 4 5 6 6 5 4 4 4 4 5 5 5 6 6 7 8 7 7 7 5 8 1 2 1 4 5 5 6 3 2 1 1 1 1 2 3 3 3 3 3 3 2 2 2 2 2 2 2 1 1 1 0 1 1 1 2 2 2 2 3 3 3 3 4 4 5 5 5 6 6 6 6
5 5 5 4 3 2 3 3 3 2 2 3 3 4 5 4 4 4 4 4 3 4 4 5 5 7 6 7 8 6 5 8 3 10 0 3 2 4 5 5 6 5 2 1 2 2 2 2 3 3 4 4 4 3 2 1 1 1 2 1 1 2 2 2 2 2 3 3 3 4 4 4 4 4 4 4 5 5 5 5 6 6 6 6 6
5 5 4 4 3 2 2 2 2 2 2 3 2 3 3 3 3 3 4 3 3 4 4 4 5 6 6 7 6 5 3 6 4 7 1 4 4 3 5 5 4 5 4 3 2 2 2 2 3 3 4 4 4 3 3 3 3 3 3 4 4 4 4 4 4 5 5 5 5 5 5 6 6 6 6 6 6 7 7 6 6 6 6 7 7
6 5 5 4 3 2 2 1 1 2 1 2 2 2 2 3 3 3 3 2 3 3 4 5 5 6 6 5 4 3 3 5 6 2 2 3 4 2 3 4 4 5 4 4 4 3 2 2 2 3 4 4 4 4 4 4 4 4 4 4 5 5 5 5 6 7 7 7 6 6 6 7 7 7 7 7 7 8 8 8 8 8 8 8 8
6 6 5 4 4 3 2 1 1 1 1 2 3 2 2 2 3 3 2 2 3 3 4 5 5 5 5 5 5 4 2 2 5 4 2 2 3 2 3 4 4 5 4 4 4 4 4 3 2 2 3 4 4 5 5 5 5 5 5 5 5 5 5 6 6 7 7 7 7 6 6 7 8 8 8 8 8 8 8 9 10 10 10 10 10
7 6 6 5 4 2 2 1 0 1 2 2 3 3 2 2 3 3 2 2 3 4 4 5 5 6 6 6 7 5 4 1 4 6 4 3 2 2 4 4 4 4 4 5 4 4 4 4 3 3 4 4 5 5 5 5 5 5 6 5 5 5 5 6 6 6 6 6 6 7 7 7 7 7 7 7 7 7 8 9 10 11 11 12 12
7 7 6 6 4 2 2 1 1 0 2 2 2 3 3 3 3 2 2 2 3 4 5 6 6 8 7 6 6 4 4 1 5 5 3 3 2 2 3 4 4 4 4 5 5 5 4 4 4 4 4 5 6 6 6 5 5 6 6 6 6 6 6 6 6 6 6 6 6 7 7 7 8 8 8 8 8 8 8 9 10 11 11 12 13
8 7 7 7 5 3 2 2 2 1 1 2 1 2 3 3 2 2 2 2 2 3 5 6 6 7 7 6 4 3 1 3 7 5 3 3 2 1 2 3 4 4 5 6 5 5 6 5 5 5 5 5 6 7 7 6 6 7 7 7 7 7 7 7 7 7 6 7 7 8 8 9 9 10 10 9 9 9 10 10 11 11 11 12 12
8 8 8 8 6 4 3 3 3 2 2 3 2 3 3 3 2 2 1 2 2 3 4 5 5 6 6 5 5 5 3 4 7 5 3 2 1 1 2 3 4 5 5 6 6 6 7 7 6 7 7 7 7 7 7 7 8 9 9 9 9 9 8 8 8 8 8 8 9 10 10 10 10 10 11 11 11 11 11 11 11 11 11 12 12
8 8 8 9 7 5 4 3 3 2 3 3 3 3 3 3 2 2 2 2 3 3 4 5 6 6 5 4 5 5 4 4 5 4 3 1 1 2 3 3 5 6 6 6 7 7 7 8 8 8 9 9 9 8 8 8 9 9 10 10 10 10 11 10 10 9 10 10 11 11 11 11 11 11 12 12 13 12 12 12 12 12 12 12 12
9 8 8 9 8 6 4 3 3 4 4 4 3 3 3 3 3 2 2 2 3 3 5 7 8 6 4 3 4 5 3 3 2 2 3 1 1 2 5 4 6 6 7 6 6 6 6 9 10 9 10 11 11 11 10 10 10 11 12 12 13 14 14 13 12 12 13 13 13 12 12 12 13 13 14 15 15 15 15 15 14 14 13 13 14
9 9 9 9 8 7 5 4 4 4 5 4 4 3 2 3 3 2 2 3 3 4 6 9 9 6 4 3 3 5 4 3 1 1 2 1 1 1 4 6 6 6 5 4 3 4 5 7 9 9 10 11 13 13 13 13 13 14 15 16 17 18 17 16 16 16 15 15 14 14 13 13 14 14 15 15 15 15 15 15 15 15 15 16 17
10 10 10 10 9 8 6 5 5 4 5 5 4 3 2 2 2 3 2 3 3 4 7 9 8 6 6 5 2 3 2 2 2 1 1 1 0 1 2 4 5 5 5 3 3 3 4 5 6 8 9 10 11 12 13 14 15 16 17 17 17 18 17 17 17 17 17 16 16 15 14 14 14 14 14 14 14 14 14 15 15 16 17 18 19
11 11 11 10 10 9 7 6 6 6 5 5 4 3 3 3 3 3 3 4 4 5 7 7 6 5 6 6 3 1 0 2 2 0 1 0 0 0 1 3 4 5 5 4 4 3 3 4 5 7 8 8 8 9 10 12 13 14 14 14 15 15 15 15 16 16 16 16 16 15 14 14 14 13 13 13 12 12 13 13 14 15 15 16 16
12 12 12 11 11 10 8 7 7 7 6 5 5 4 4 4 4 3 3 4 5 6 7 6 5 5 5 5 3 3 1 2 1 0 0 1 1 1 2 3 3 4 5 6 6 5 4 4 5 6 7 8 8 8 8 9 10 10 11 11 12 12 12 13 13 14 14 14 14 13 13 12 12 11 11 11 11 11 11 11 11 12 12 12 13
12 12 13 12 12 10 9 9 8 8 7 7 6 5 5 5 5 4 4 4 5 6 7 6 5 5 5 5 4 3 1 1 1 1 1 2 2 3 3 3 4 4 5 7 5 4 5 6 7 7 7 8 8 8 7 7 8 9 10 11 11 12 11 11 11 12 12 12 12 12 11 11 10 10 10 10 10 10 9 9 9 9 9 9 10
12 13 13 13 13 12 11 10 9 9 9 8 7 6 6 6 5 5 5 5 4 6 7 5 4 5 5 4 4 3 2 1 1 1 1 3 4 4 5 5 6 5 6 9 7 4 5 7 7 8 8 8 7 7 6 6 7 8 9 10 11 11 11 10 10 10 11 11 11 11 10 9 9 9 9 9 9 9 8 8 7 7 7 7 8
13 14 14 14 13 13 13 12 11 11 10 9 9 8 7 7 7 6 5 5 4 5 5 4 3 4 5 4 5 4 3 2 1 1 1 3 3 4 5 6 8 7 6 9 11 9 7 7 9 8 8 8 7 6 6 5 6 7 8 9 10 10 9 9 9 9 9 9 9 9 8 7 7 7 7 8 8 8 7 7 7 7 8 8 8
14 14 14 15 15 14 14 14 13 12 11 10 10 9 8 8 8 7 6 5 5 5 5 3 1 2 4 5 6 6 5 4 3 1 0 1 2 3 5 5 7 6 4 7 11 12 10 9 10 10 7 6 7 6 6 5 6 7 7 8 8 8 9 8 8 8 8 8 7 6 5 5 6 6 7 7 8 8 8 8 8 9 9 10 10
15 15 13 14 15 15 15 15 15 14 12 11 10 10 10 9 9 8 7 6 6 5 5 3 2 1 2 4 5 5 5 5 4 3 2 1 1 2 3 5 6 6 5 6 9 13 13 11 11 11 8 5 5 5 6 7 8 7 7 7 7 8 8 8 8 7 7 6 6 5 4 5 6 7 8 9 9 10 10 10 11 11 12 13 14
14 14 13 13 14 14 14 15 15 14 13 12 11 11 11 10 9 9 8 7 7 6 5 4 3 3 2 2 3 4 4 4 4 4 3 2 2 3 5 6 7 7 6 7 7 10 13 12 11 11 10 7 5 5 5 7 8 8 7 7 8 9 9 8 7 7 7 7 6 6 7 8 9 9 9 10 11 11 12 13 13 14 15 17 18
12 11 11 12 13 12 13 14 14 14 14 13 12 13 13 11 10 10 8 8 8 7 6 5 5 4 4 2 1 2 2 3 3 4 3 3 3 3 5 5 7 7 6 6 7 7 9 11 9 8 10 9 7 6 6 6 7 7 8 8 8 9 8 7 7 7 8 8 8 9 10 10 10 10 10 11 12 13 14 15 16 17 18 19 20
10 9 11 13 13 12 12 13 14 15 15 15 14 14 14 13 11 11 10 9 9 8 7 6 6 5 4 3 1 1 2 3 4 4 4 4 4 4 4 4 6 6 5 6 8 8 9 11 9 7 8 10 10 9 8 8 7 8 8 8 8 8 8 7 7 7 8 8 9 10 11 11 11 11 12 12 13 14 15 17 18 19 20 21 22
10 10 11 13 13 13 13 13 13 14 15 15 15 15 15 15 13 12 11 11 10 9 8 8 7 7 6 4 2 2 2 3 4 4 4 5 5 4 4 4 5 6 7 7 8 9 10 10 9 9 9 10 12 12 11 10 9 9 9 9 9 9 8 7 7 7 8 9 11 12 12 12 11 12 13 14 16 17 18 19 20 21 21 22 22
11 11 11 12 12 12 13 14 14 14 14 15 16 16 16 16 14 13 12 12 11 10 9 9 9 8 7 6 4 4 3 2 3 3 4 5 6 6 5 4 6 7 8 8 7 7 8 9 9 10 10 10 12 13 13 13 12 11 11 10 10 10 10 9 9 9 10 11 12 13 13 12 12 13 15 16 17 18 19 20 20 20 21 21 21
13 12 11 11 11 11 12 14 15 15 14 15 17 17 17 17 16 14 13 13 13 12 11 10 10 10 9 8 6 5 4 3 1 2 2 3 5 6 7 6 6 8 8 8 7 7 8 9 10 10 10 10 12 13 14 14 14 14 13 12 11 10 11 11 10 11 12 12 13 13 13 13 13 15 16 17 18 19 20 20 21 21 21 21 21
14 13 13 13 12 11 10 11 14 15 15 15 17 18 18 18 17 16 15 15 14 13 13 12 12 11 11 10 8 6 5 4 2 1 0 2 4 5 7 7 8 8 8 9 10 9 9 10 12 13 11 10 12 13 13 14 15 15 15 14 13 12 12 12 11 12 13 13 13 13 13 13 14 16 17 17 19 20 22 22 22 22 22 22 22
16 15 15 14 14 13 11 10 11 13 15 15 16 18 19 19 19 17 17 17 16 14 14 14 13 13 12 11 10 8 7 6 5 3 2 3 4 5 6 8 9 9 10 11 10 10 10 11 14 15 14 12 13 13 13 13 14 15 15 14 14 13 13 13 12 12 13 13 13 13 13 15 17 17 17 18 20 22 23 24 24 25 24 24 24
18 18 17 15 14 15 14 13 11 12 13 14 15 17 19 19 20 19 19 19 18 16 15 16 16 15 14 13 12 11 10 9 7 6 5 5 6 7 7 8 9 10 11 12 12 11 11 11 15 17 15 13 14 15 14 14 14 15 15 14 14 14 14 14 13 13 13 13 14 15 16 17 18 18 19 20 22 24 25 26 27 26 25 26 27
20 20 19 18 16 15 16 16 15 13 13 14 14 15 16 18 19 20 20 21 20 19 17 16 17 17 16 15 14 13 13 12 10 9 8 7 7 8 9 9 10 11 12 12 13 13 13 12 14 17 16 14 14 16 16 15 14 15 16 15 14 14 15 15 15 15 15 15 15 16 17 17 18 19 20 22 24 25 27 28 28 27 28 29 30
22 21 21 21 20 18 17 17 18 17 15 14 15 15 14 16 18 19 20 22 22 21 20 18 17 18 18 18 16 16 15 15 13 12 11 10 9 9 10 10 11 11 12 13 14 14 15 14 13 16 18 16 15 16 17 17 16 14 16 17 16 15 16 16 16 16 16 16 16 17 18 18 19 20 21 23 25 26 28 29 29 29 30 31 31
23 23 22 23 23 22 20 18 19 19 18 16 16 16 14 14 16 18 20 22 23 22 22 20 19 19 20 20 19 18 18 17 16 15 14 13 12 11 11 12 12 12 13 13 14 15 16 16 15 15 18 18 17 16 16 18 17 15 15 16 17 16 16 17 17 17 16 16 17 19 19 19 19 21 22 24 25 26 28 30 31 30 30 30 31
25 24 24 24 24 24 23 21 20 20 20 19 18 18 17 16 15 17 19 22 23 23 23 22 21 20 21 22 22 22 21 20 18 17 16 16 14 13 13 14 14 14 15 14 15 16 16 17 16 16 17 18 18 17 16 17 18 17 15 15 16 16 16 17 17 17 17 17 18 18 18 19 20 22 23 23 25 27 29 31 31 30 29 29 29
26 25 25 26 25 25 24 24 22 21 21 22 22 21 20 19 18 18 19 21 23 24 24 25 24 23 22 23 23 24 25 24 22 20 18 17 17 16 15 16 16 17 18 18 17 17 17 18 18 17 17 18 18 18 17 18 19 18 16 15 16 16 17 17 18 18 17 17 18 18 19 20 20 21 23 24 26 29 30 31 30 28 27 27 26
27 27 26 27 27 26 26 25 25 24 24 24 25 24 23 23 22 20 20 21 23 24 24 25 27 27 25 25 25 26 27 28 26 24 21 19 19 18 17 17 18 19 20 21 20 20 20 20 19 18 18 18 18 18 18 18 19 19 18 17 17 17 17 17 18 19 18 17 18 20 20 21 21 23 25 27 28 30 31 30 28 26 25 25 24
27 28 27 27 28 28 28 27 27 27 27 27 27 27 26 25 25 24 23 23 23 24 25 25 27 28 29 28 27 28 28 29 29 28 25 23 22 21 20 19 20 21 21 22 23 23 22 23 23 21 20 19 19 19 19 18 18 19 20 19 17 17 17 17 17 19 19 18 19 20 22 22 23 25 26 28 29 31 30 29 26 24 23 23 22
26 27 28 27 28 28 29 29 28 28 29 30 30 30 29 27 27 27 26 25 24 25 26 26 27 28 30 31 30 30 30 30 31 30 29 27 25 24 23 21 21 22 22 24 25 25 25 24 25 24 23 21 19 19 20 19 18 19 20 19 17 17 17 17 17 18 20 20 20 21 23 24 26 27 28 29 31 31 30 27 24 22 22 22 22
25 26 27 28 28 28 29 29 29 29 31 32 31 31 30 29 28 28 28 28 26 26 27 27 27 28 29 31 32 32 32 32 32 32 32 31 29 27 26 24 23 24 24 25 26 27 27 27 26 26 26 25 21 19 20 20 18 19 20 20 18 18 19 19 18 18 20 21 21 22 24 26 28 29 31 32 33 31 29 25 22 22 22 22 22
25 25 26 27 28 28 28 29 29 29 30 31 30 31 30 30 29 28 30 30 29 29 29 29 29 29 29 31 31 33 33 34 34 35 34 34 33 31 29 27 26 26 26 27 28 29 29 29 28 28 28 28 25 21 21 20 20 20 21 21 20 19 20 20 19 19 21 22 22 22 23 25 27 29 31 33 33 32 28 24 22 21 22 22 23
24 24 24 25 26 27 26 26 27 27 27 28 28 28 28 29 29 29 30 31 31 31 31 31 31 31 31 31 31 32 33 34 35 36 36 36 36 35 33 30 28 28 28 29 30 31 31 31 31 30 29 30 28 25 23 22 22 22 22 22 22 21 21 22 21 21 22 23 22 22 23 25 27 28 30 32 32 30 26 22 20 20 22 23 24
26 25 24 24 24 26 26 25 24 25 24 25 25 25 25 25 27 28 29 30 31 31 31 31 31 31 32 32 32 33 34 34 36 38 38 39 39 38 37 34 32 31 31 31 32 33 33 33 33 32 31 30 30 29 26 25 24 24 23 23 23 23 23 23 23 23 23 23 23 22 23 26 27 28 30 31 31 27 23 21 20 20 21 23 23
28 28 27 26 26 26 27 26 25 24 24 24 24 25 25 24 25 26 27 28 29 30 30 31 31 31 32 33 34 34 34 35 36 38 39 40 40 41 40 39 37 35 35 35 35 35 35 35 35 34 32 32 32 32 30 28 28 26 24 24 24 24 24 24 25 25 24 24 24 24 24 26 27 28 30 31 30 26 23 21 20 19 20 21 23
31 30 29 29 28 28 28 28 27 26 25 24 24 24 25 25 25 26 27 28 29 30 30 30 31 30 31 32 34 34 35 35 36 38 39 40 40 41 42 42 41 40 39 39 39 38 37 37 36 35 34 33 33 34 33 32 31 29 26 25 25 26 26 25 26 26 25 24 25 25 24 25 26 28 29 30 28 25 23 22 20 18 19 21 22
31 31 30 30 29 29 29 29 29 28 27 26 26 25 25 26 27 27 27 28 29 30 31 32 31 31 31 32 33 34 35 37 36 37 39 39 40 41 42 43 43 43 43 43 42 41 40 40 39 38 37 36 35 36 36 36 33 31 29 27 27 27 28 27 27 27 25 25 26 26 24 24 26 27 29 28 26 24 23 22 20 18 18 19 21
33 32 32 31 30 30 30 30 31 30 29 28 28 27 27 27 28 28 28 29 30 31 32 33 33 33 32 33 33 34 35 37 37 38 39 40 40 41 42 42 43 44 45 45 45 44 44 43 41 40 39 39 38 38 38 38 35 33 32 31 30 29 29 29 28 27 26 26 26 25 24 24 26 27 28 27 24 23 23 23 21 19 18 18 19
34 34 33 33 32 32 32 32 31 31 31 30 30 29 29 29 30 30 30 30 31 31 32 33 34 34 34 35 35 35 35 37 38 38 40 42 42 42 42 42 43 45 46 46 47 47 46 45 44 43 43 42 42 40 40 40 38 35 34 34 33 30 30 30 29 27 27 26 25 24 24 26 28 28 28 26 24 22 23 22 21 19 18 18 18
35 35 34 34 34 34 34 33 32 32 32 32 32 31 31 31 32 32 32 33 33 33 33 34 34 35 35 36 36 37 37 38 38 39 40 43 44 43 43 43 44 45 46 47 47 47 48 48 47 46 46 45 44 42 41 41 41 38 37 37 35 32 31 30 28 27 25 24 23 23 23 25 29 30 27 25 24 22 22 22 21 19 18 18 18
36 37 36 35 34 34 35 34 34 33 33 34 34 33 33 34 34 34 35 36 35 34 34 35 36 35 35 36 36 37 38 40 41 40 41 43 44 44 44 45 46 46 45 47 47 47 49 51 50 49 48 47 46 44 43 43 43 41 39 38 37 35 32 28 27 27 24 21 20 22 22 23 28 30 27 25 23 22 22 22 21 20 18 18 18
Wind_Direction
127 116 118 127 119 112 109 106 106 79 72 77 62 56 73 80 56 62 54 41 36 23 17 20 11 10 14 6 4 35 23 349 1 95 99 7 7 6 22 12 279 198 193 181 181 137 97 79 73 66 66 73 72 73 76 79 86 94 103 112 124 139 169 212 249 279 291 309 321 326 335 347 337 322 322 328 334 340 344 350 353 354 347 341 342
129 129 134 124 122 111 95 100 101 80 73 66 61 64 85 76 44 56 54 35 30 14 11 17 0 2 4 359 1 34 54 11 345 73 81 350 344 1 25 27 19 179 204 206 192 210 80 59 56 56 53 58 61 67 79 84 85 88 96 104 115 130 147 169 196 231 264 295 314 320 330 340 341 331 324 321 322 326 330 336 341 341 335 333 336
130 137 146 126 127 110 92 103 62 71 79 64 52 57 64 52 47 53 54 38 21 6 4 10 355 353 357 357 0 20 67 42 337 360 48 303 308 12 24 31 37 135 188 222 221 233 337 345 4 32 32 30 39 53 75 87 83 81 86 91 100 116 137 158 176 198 247 317 327 328 329 330 333 332 327 321 316 317 320 324 330 333 333 331 331
148 149 158 145 140 133 115 111 66 64 77 62 29 38 49 47 52 53 47 36 14 6 360 1 350 345 351 351 1 13 72 90 314 318 7 231 323 29 24 31 34 55 146 222 270 298 332 335 341 2 11 11 18 29 50 75 82 80 79 78 80 73 68 52 27 14 2 356 341 334 334 327 322 320 318 312 307 309 311 316 321 324 326 326 326
171 163 161 151 147 153 126 109 89 74 56 59 41 43 54 55 63 55 42 29 2 12 4 354 344 342 348 349 5 14 68 104 299 304 119 140 51 35 19 27 32 31 26 305 291 307 323 319 323 335 349 358 1 6 6 4 6 340 343 349 340 340 338 340 340 340 339 337 332 330 328 325 318 313 310 309 310 309 307 309 314 315 319 319 320
186 186 174 162 167 155 92 85 88 68 42 52 54 58 68 64 66 55 44 31 357 13 5 347 343 342 344 347 5 17 57 132 226 299 48 99 69 48 17 20 24 23 21 356 315 300 298 299 312 319 327 339 345 346 341 333 331 327 326 318 311 312 314 313 311 314 318 319 318 318 319 317 312 307 306 309 311 311 311 309 309 310 312 313 314
192 197 186 179 188 158 109 129 124 81 31 20 25 51 71 59 52 43 38 27 358 14 3 346 352 345 342 348 353 23 61 182 213 297 35 55 57 45 18 19 7 11 14 11 358 338 324 293 292 307 314 318 321 324 322 324 330 327 317 307 301 298 298 297 297 304 306 308 308 304 305 305 303 303 303 305 307 307 307 306 305 305 305 305 305
196 202 196 196 205 174 153 205 157 95 348 353 17 19 33 43 47 36 22 15 10 22 12 358 5 355 346 356 351 359 25 206 187 148 138 65 54 22 27 27 10 13 0 351 359 355 351 329 288 272 289 296 301 308 311 315 323 322 317 308 297 290 291 296 301 304 302 300 301 295 293 296 300 304 307 309 310 307 304 302 302 301 299 297 296
198 205 208 207 213 189 168 228 305 69 333 337 19 10 3 30 45 35 5 14 24 23 23 18 20 13 1 360 360 343 314 303 136 146 150 106 76 37 37 33 19 17 354 343 354 359 350 338 314 278 271 277 282 288 293 299 305 311 315 311 299 292 294 301 306 309 305 299 300 299 297 299 305 308 309 310 312 310 305 300 299 297 296 295 294
202 208 216 218 218 211 191 221 285 338 320 331 21 6 352 10 29 28 3 20 28 18 28 32 27 24 15 0 357 329 289 158 135 148 146 120 91 55 40 29 21 9 347 337 346 353 343 331 324 307 286 277 274 277 283 285 288 297 305 306 301 297 298 301 305 306 305 303 306 309 307 305 306 306 303 304 307 309 307 304 303 302 301 301 299
211 212 220 226 223 217 216 240 257 256 316 327 9 1 346 346 343 354 9 31 31 17 31 40 31 24 21 17 17 9 345 153 152 152 146 133 116 90 29 11 7 0 345 328 322 327 328 328 321 313 302 289 284 286 290 289 289 293 295 295 296 294 293 297 301 302 302 302 305 306 306 304 302 303 303 304 306 307 308 308 308 308 307 308 307
218 218 220 229 230 219 212 235 257 266 311 324 341 344 334 323 307 310 346 28 25 17 32 39 28 16 17 32 51 57 73 144 149 145 152 149 134 83 6 1 357 355 340 317 305 301 313 322 314 304 298 293 291 293 296 296 295 294 292 292 292 290 292 296 297 298 299 300 302 304 305 304 303 305 306 306 308 307 305 305 305 303 302 303 303
223 223 223 230 233 231 230 244 274 292 303 322 325 322 322 303 297 314 328 8 11 359 16 19 12 9 19 44 58 63 90 135 141 145 159 155 90 359 341 11 27 9 351 329 307 290 292 302 304 298 291 288 289 290 293 296 297 297 298 299 297 294 294 295 292 291 294 296 299 302 303 301 302 303 302 302 302 300 298 297 296 294 293 293 292
227 226 228 232 236 241 254 276 301 308 309 318 315 315 330 307 295 307 314 353 7 355 360 3 4 14 31 46 57 70 102 135 142 153 148 149 30 351 334 12 49 23 359 348 320 300 287 291 298 293 282 280 283 287 291 295 298 301 303 304 304 302 299 296 295 293 293 294 295 296 296 294 295 296 296 297 297 295 295 295 293 291 291 290 290
232 230 231 234 237 240 250 268 289 302 301 317 327 324 322 293 276 284 305 340 353 351 351 354 2 16 23 12 59 85 94 115 118 127 126 129 53 16 339 357 28 20 6 4 339 321 301 295 300 300 294 287 282 282 287 292 298 303 308 308 307 306 304 303 303 301 299 298 297 296 294 291 292 294 297 299 298 298 298 296 294 293 292 293 295
237 234 233 235 238 241 245 255 272 285 291 314 323 303 296 280 274 290 307 330 337 348 349 352 6 16 9 358 29 101 105 132 130 120 108 105 54 68 347 345 360 6 14 20 357 328 311 303 303 311 316 308 294 286 285 288 292 301 308 311 311 310 309 308 307 305 304 302 301 300 300 300 300 302 303 302 302 300 299 297 296 295 295 296 298
239 235 233 233 235 242 249 252 263 277 286 301 300 300 316 298 286 296 306 325 339 358 355 354 13 19 11 7 11 26 31 142 138 121 86 97 321 23 316 321 337 343 348 355 354 337 322 315 312 320 325 326 323 312 305 301 300 306 315 320 320 315 311 309 307 306 306 305 305 305 306 308 309 310 310 308 308 307 305 303 302 300 300 300 301
238 236 232 232 234 241 249 253 261 272 277 284 289 302 306 286 285 294 298 319 340 0 1 0 16 22 16 11 7 7 22 121 146 229 5 325 327 336 303 306 319 326 328 332 333 321 318 328 327 329 329 333 340 341 335 326 323 327 332 335 333 327 317 312 310 310 311 312 313 314 316 318 321 322 324 324 323 321 318 315 312 310 308 306 304
238 235 233 233 234 240 247 251 258 266 273 277 280 287 283 275 279 289 296 310 332 355 1 6 18 26 25 17 16 22 36 121 155 223 298 312 324 321 310 306 299 303 310 312 317 307 307 323 329 332 337 336 338 343 343 335 335 337 338 342 343 339 332 324 320 318 318 319 320 323 326 329 333 335 337 338 337 335 332 328 325 321 317 314 312
239 236 235 233 232 238 246 250 254 261 269 274 275 276 272 269 272 281 294 300 319 350 357 5 22 35 43 35 32 36 46 126 202 246 273 291 303 309 317 316 306 313 316 316 333 344 320 323 329 331 331 332 333 334 337 335 335 336 336 341 343 340 335 329 327 324 323 325 326 329 334 339 345 348 350 350 346 343 339 336 335 332 331 329 329
243 237 237 237 233 234 241 248 252 255 260 267 270 270 272 274 273 272 279 287 306 336 344 357 32 53 64 65 64 63 66 75 33 308 261 279 293 303 311 309 306 320 324 317 328 339 340 338 335 337 332 328 331 328 328 330 328 331 331 333 337 337 334 329 327 327 327 328 329 333 341 352 359 1 359 355 349 344 340 338 337 336 336 334 333
245 241 238 241 240 236 238 244 250 253 256 259 264 268 273 275 270 267 268 275 292 314 327 336 23 75 82 86 85 83 79 73 56 46 258 296 318 299 303 310 317 335 332 307 317 329 346 354 336 342 349 328 329 328 320 322 323 326 326 326 332 335 336 332 328 327 327 328 330 335 348 360 2 358 353 348 342 338 334 332 329 327 326 324 323
242 244 241 242 245 242 241 244 248 253 254 253 256 262 266 268 267 267 265 264 278 296 307 299 254 182 116 102 92 88 82 76 67 64 66 36 10 315 333 350 349 2 348 314 314 319 337 356 339 338 354 340 337 337 323 326 327 325 323 322 327 333 336 333 327 326 325 325 325 330 340 342 339 338 337 336 334 331 329 326 325 323 321 320 319
240 243 243 242 245 245 244 246 248 252 254 252 253 256 260 263 265 266 263 260 267 280 288 274 245 226 194 137 99 88 80 74 65 63 64 47 19 350 359 357 351 3 352 322 316 309 323 343 337 333 346 351 351 342 329 330 327 324 323 320 322 329 333 331 328 325 322 318 314 315 321 323 325 329 330 330 329 325 323 320 317 315 314 313 312
239 238 240 241 243 244 245 246 248 250 253 253 252 254 258 260 262 262 260 257 259 269 276 262 239 226 212 187 129 99 84 72 60 54 49 37 22 1 359 349 337 351 355 337 337 329 331 345 348 344 346 352 0 351 333 332 324 318 317 316 316 320 326 327 324 320 316 312 309 309 311 314 320 326 329 329 326 322 318 314 311 309 308 308 308
236 229 230 237 239 239 243 245 246 247 251 253 252 254 258 261 263 261 256 253 253 261 268 254 235 225 217 210 184 139 110 84 69 58 45 32 20 6 359 342 326 335 352 357 355 355 355 360 11 14 355 350 358 356 340 332 325 314 309 310 309 311 316 316 312 312 312 310 310 309 310 313 318 324 326 326 325 322 319 316 314 312 311 311 310
229 226 226 233 237 235 239 243 244 245 249 253 254 254 259 263 264 262 257 253 251 255 260 250 235 229 227 223 203 178 141 97 82 68 56 46 32 18 360 336 333 344 355 356 354 355 355 356 8 18 5 350 349 351 343 336 329 319 314 312 308 309 312 309 306 306 308 310 312 312 312 314 318 322 324 326 326 325 322 319 317 316 315 315 315
222 228 231 235 238 234 236 242 246 248 249 253 257 258 259 262 265 265 261 256 251 252 254 249 238 234 236 231 212 193 177 129 102 83 64 55 46 34 20 349 338 351 1 359 355 352 346 347 6 19 9 351 344 345 344 342 337 328 323 319 316 315 313 311 310 310 311 313 312 312 313 315 317 319 322 325 326 324 321 319 317 316 317 317 318
218 226 234 240 243 236 233 239 246 253 255 256 260 262 262 262 263 264 264 261 255 251 252 250 243 239 241 239 225 208 200 191 146 103 69 48 42 31 24 9 347 347 354 358 0 352 336 335 354 13 10 351 343 343 343 343 340 337 333 328 325 320 312 312 313 312 314 315 312 312 313 313 315 318 322 325 325 323 320 317 316 317 318 318 318
223 225 231 239 247 246 240 239 244 252 257 258 260 263 265 263 263 263 263 263 260 254 253 253 249 244 243 243 237 227 221 228 246 258 15 15 18 15 10 4 356 350 346 351 356 352 340 329 336 355 2 350 342 341 343 344 340 341 342 337 331 323 313 312 313 313 315 313 311 311 311 313 316 318 321 323 322 320 318 317 317 318 320 320 320
229 231 233 236 244 251 253 251 248 252 257 259 259 262 265 264 264 263 262 263 262 258 255 256 254 249 244 245 244 240 239 245 260 280 300 327 341 349 353 351 351 351 347 350 352 348 344 328 324 339 348 341 339 341 345 347 341 339 345 344 337 328 320 316 314 315 315 312 310 310 311 313 315 316 319 319 318 317 318 319 320 321 323 324 324
231 237 241 241 242 250 256 260 259 258 261 264 262 262 264 264 264 263 262 262 263 260 257 256 257 254 247 246 248 246 247 253 262 278 292 305 315 323 331 337 342 345 344 347 348 347 345 329 321 330 339 338 335 336 340 345 343 339 342 345 340 332 327 320 315 315 314 311 309 309 310 312 314 315 317 316 316 318 320 321 321 323 326 327 327
231 237 244 248 247 248 253 259 264 264 266 269 270 268 267 266 266 266 263 261 263 263 259 254 254 257 253 248 248 248 250 255 260 271 282 290 299 307 317 326 331 336 338 341 343 344 342 334 324 324 331 338 335 329 331 336 340 339 337 340 340 334 330 324 318 315 314 312 309 306 307 311 313 315 316 316 317 319 321 322 323 325 327 328 329
231 235 241 248 252 251 251 256 263 268 270 271 274 277 277 273 271 269 266 263 263 264 262 256 253 256 257 252 248 249 251 254 258 265 274 281 289 297 306 314 320 324 329 332 334 337 336 334 329 320 322 332 333 327 325 326 331 336 333 333 335 333 330 326 320 317 315 312 308 306 309 312 313 314 316 316 318 320 322 323 323 325 327 329 329
232 236 240 245 251 254 255 256 259 266 271 273 275 278 282 281 278 275 271 267 265 264 263 261 255 253 256 255 252 250 252 253 254 259 266 273 280 288 295 302 308 312 318 321 324 328 328 328 329 321 317 323 327 325 322 318 319 325 327 327 328 329 327 323 320 318 316 311 306 306 309 311 311 313 315 317 319 321 321 321 322 324 329 330 329
233 237 242 245 248 252 255 258 259 263 269 273 275 277 279 282 281 280 276 272 269 266 264 263 259 254 254 255 254 253 254 255 254 254 260 267 275 280 285 292 298 302 307 311 313 315 318 320 323 321 316 317 319 319 317 314 312 314 317 319 321 324 325 322 320 319 317 311 307 307 310 310 309 312 316 318 319 319 319 319 321 327 331 329 326
235 237 241 245 248 250 254 258 262 264 268 272 274 276 278 279 280 279 278 277 274 271 267 264 263 259 255 254 254 253 255 257 258 257 257 263 270 275 280 286 292 296 299 303 305 305 307 310 313 316 314 312 311 311 311 311 308 308 309 310 314 320 322 321 319 316 314 311 309 309 310 310 309 311 315 317 317 318 319 321 324 329 331 328 326
236 238 241 244 249 253 255 258 263 266 268 270 273 275 276 277 277 277 277 278 278 277 272 266 264 263 260 257 254 254 255 257 260 261 260 261 266 271 276 282 287 291 294 299 302 302 301 301 303 307 309 308 308 307 308 307 305 305 304 303 307 313 317 319 315 310 309 312 311 308 309 310 310 311 314 316 318 321 323 323 326 330 329 327 326
236 240 242 245 248 253 257 259 262 266 269 270 271 273 273 274 275 275 275 276 278 280 278 273 269 266 264 261 258 256 256 257 260 262 263 263 264 268 273 276 281 286 289 293 297 299 300 299 298 300 303 305 306 306 305 304 303 303 302 300 301 305 309 313 312 306 304 308 309 307 308 310 310 310 312 316 321 325 325 325 327 328 326 325 326
236 240 245 247 248 252 257 259 262 264 267 269 270 271 272 272 273 274 274 274 275 277 279 279 275 272 269 267 264 261 260 259 261 263 264 264 265 266 269 272 276 281 285 287 290 293 295 296 296 297 298 300 304 304 303 305 306 303 301 301 302 301 302 307 309 304 302 305 309 308 309 310 311 312 315 320 325 326 325 324 325 324 324 326 328
238 240 245 250 252 253 255 259 261 263 265 267 269 270 272 273 273 274 274 274 274 274 275 276 276 275 272 270 269 267 266 265 264 265 265 265 265 266 267 269 273 277 281 284 286 288 290 292 294 295 295 296 301 303 301 303 305 303 301 302 303 299 297 302 306 303 301 303 307 309 310 311 312 315 319 322 324 324 323 323 322 322 326 329 331
242 241 244 249 254 255 256 258 260 261 263 265 267 268 270 272 273 273 273 274 274 273 272 272 272 272 272 271 270 270 269 269 268 268 267 266 266 266 267 268 270 273 277 280 283 285 286 288 290 292 293 295 298 300 301 301 302 302 302 302 300 295 294 298 302 303 303 303 304 305 305 305 308 313 316 318 321 322 322 321 320 322 327 331 333
246 246 244 245 251 255 256 257 258 260 262 264 267 268 268 270 271 270 270 272 273 273 271 270 269 269 269 269 269 268 268 268 268 269 269 268 268 267 267 267 268 270 273 277 280 282 284 285 287 288 291 293 295 297 299 299 299 299 300 300 299 295 292 293 296 300 302 302 302 301 300 302 306 311 313 316 319 319 319 318 320 324 329 333 334
247 250 249 247 249 254 258 259 258 259 262 265 267 269 268 268 268 269 269 269 270 272 273 271 269 268 267 267 268 268 267 266 267 268 269 269 269 268 268 268 268 268 270 272 276 279 281 283 284 285 288 291 293 293 295 296 295 295 295 297 298 296 292 291 291 295 299 299 297 298 299 302 306 310 313 316 317 316 316 318 321 326 330 332 333
248 251 252 252 253 255 259 262 263 263 265 267 268 270 272 271 269 268 269 269 269 271 274 274 273 270 268 267 267 267 268 268 268 268 269 269 270 269 269 268 268 268 268 270 272 275 279 281 282 284 286 288 290 291 292 292 292 294 295 294 295 294 292 290 288 292 297 297 295 298 302 304 307 311 314 315 315 315 317 318 321 324 327 329 331
247 250 252 255 257 258 260 264 268 270 270 270 271 272 273 274 273 271 271 272 272 272 273 274 275 274 272 269 268 268 268 268 268 268 269 269 269 269 269 269 270 270 269 269 270 273 276 279 281 283 284 284 286 287 287 288 289 293 294 292 291 292 291 289 287 290 296 297 295 298 304 307 309 312 313 313 313 314 314 315 319 323 326 328 329
248 250 253 256 258 260 261 263 267 271 273 275 276 277 276 276 275 274 272 272 273 274 274 275 275 276 276 274 272 269 268 268 268 269 269 270 270 269 269 269 270 270 269 269 270 272 274 277 279 280 281 280 281 282 283 285 287 290 290 289 287 288 289 289 287 288 292 295 296 299 306 310 310 310 310 311 312 312 311 313 317 323 326 326 325
248 250 252 254 257 259 261 263 265 269 274 277 279 281 281 279 278 276 274 272 272 273 274 276 277 277 277 276 275 274 272 270 270 271 271 271 271 270 270 269 269 269 270 270 270 271 272 274 276 277 278 278 278 278 279 282 285 286 286 286 286 287 288 288 287 286 287 290 293 300 308 311 309 308 310 311 311 309 307 309 314 321 323 322 321
248 250 252 254 256 259 261 263 265 268 271 274 277 279 280 280 279 277 275 274 273 272 272 274 276 278 278 277 277 276 275 273 272 272 272 272 272 272 272 272 270 269 270 270 270 271 272 273 274 275 275 275 275 276 277 280 282 283 282 282 284 285 286 286 286 284 284 288 293 301 309 311 308 308 310 309 306 304 303 304 310 315 318 321 324
247 250 252 254 255 258 260 262 265 266 268 271 273 275 277 278 278 277 276 275 274 273 273 272 273 275 278 279 280 279 278 277 274 273 272 272 272 273 274 274 272 271 271 271 272 272 273 273 273 273 274 275 276 276 275 277 279 280 279 280 281 281 283 286 284 280 282 287 294 302 309 309 307 307 308 306 302 300 299 300 305 310 316 323 326
246 248 251 253 255 256 258 261 263 265 267 268 270 272 273 274 275 276 276 276 275 275 274 274 274 275 277 279 281 282 282 280 278 277 275 274 273 273 273 274 273 273 274 273 274 274 274 273 273 275 276 276 276 276 274 274 275 276 277 278 279 280 282 283 280 276 277 282 292 305 311 305 301 303 305 302 299 296 296 297 301 307 314 322 325